User: anonymous   Login
Location: *
(2.5500°S, 65.9667°W)
Time: 06:14:29
(UTC+00:00)
Language:

Cosmos 1242 Rocket - Orbit

View from above orbital plane
View from above orbital plane
View from above satellite
View from above satellite

Ground track
Ground track

The orbit data is extracted from the following two-line orbital elements,

1 12155U 81008B   22021.56702865  .00003249  00000-0  94795-4 0  9993
2 12155  81.1594 223.3115 0026930 349.1238  10.9414 15.34654990217826
Epoch (UTC): 21 January 2022 13:36:31
Eccentricity: 0.0026930
inclination: 81.1594°
perigee height: 443 km
apogee height: 480 km
right ascension of ascending node: 223.3115°
argument of perigee: 349.1238°
revolutions per day: 15.34654990
mean anomaly at epoch: 10.9414°
orbit number at epoch: 21782

The dashed part of the orbit path shows where the satellite is in the earth's shadow,  

DLR